TimeAWST,TemperatureF,Dew PointF,Humidity,Sea Level PressureIn,VisibilityMPH,Wind Direction,Wind SpeedMPH,Gust SpeedMPH,PrecipitationIn,Events,Conditions,WindDirDegrees,DateUTC
12:00 AM,79,52,28,29.82,,SSE,6.9,,,,,160,2012-10-09 16:00:00
12:00 AM,78.8,51.8,39,29.80,6.2,SSE,6.9,-,N/A,,Unknown,160,2012-10-09 16:00:00
12:30 AM,77.0,53.6,44,29.80,6.2,SSW,4.6,-,N/A,,Unknown,200,2012-10-09 16:30:00
1:00 AM,75.2,53.6,47,29.80,6.2,SW,6.9,-,N/A,,Unknown,230,2012-10-09 17:00:00
1:30 AM,78.8,51.8,39,29.80,6.2,SSW,8.1,-,N/A,,Unknown,200,2012-10-09 17:30:00
2:00 AM,77,52,31,29.80,,SSE,6.9,,,,,150,2012-10-09 18:00:00
2:00 AM,77.0,51.8,41,29.80,6.2,SSE,6.9,-,N/A,,Unknown,150,2012-10-09 18:00:00
2:30 AM,78.8,50.0,36,29.80,6.2,South,8.1,-,N/A,,Unknown,190,2012-10-09 18:30:00
3:00 AM,80,46,20,29.81,,South,10.4,,,,,170,2012-10-09 19:00:00
3:00 AM,78.8,46.4,32,29.80,6.2,South,10.4,-,N/A,,Unknown,170,2012-10-09 19:00:00
3:30 AM,78.8,44.6,30,29.80,6.2,South,10.4,-,N/A,,Unknown,180,2012-10-09 19:30:00
4:00 AM,80.6,41.0,24,29.80,6.2,SSE,10.4,-,N/A,,Unknown,160,2012-10-09 20:00:00
4:30 AM,78.8,42.8,28,29.83,6.2,SSE,9.2,-,N/A,,Unknown,150,2012-10-09 20:30:00
5:00 AM,77,42,18,29.85,,SSE,9.2,,,,,150,2012-10-09 21:00:00
5:00 AM,77.0,41.0,28,29.83,6.2,SSE,9.2,-,N/A,,Unknown,150,2012-10-09 21:00:00
5:30 AM,75.2,41.0,29,29.86,6.2,SSE,10.4,-,N/A,,Unknown,160,2012-10-09 21:30:00
6:00 AM,76,39,17,29.88,19,SSE,10.4,,,,Partly Cloudy,160,2012-10-09 22:00:00
6:00 AM,75.2,39.2,27,29.86,-9999.0,SSE,10.4,-,N/A,,Clear,160,2012-10-09 22:00:00
6:30 AM,77.0,39.2,26,29.89,-9999.0,South,9.2,-,N/A,,Clear,170,2012-10-09 22:30:00
7:00 AM,80.6,39.2,23,29.89,-9999.0,SE,9.2,-,N/A,,Clear,140,2012-10-09 23:00:00
7:30 AM,86.0,33.8,15,29.92,-9999.0,SE,11.5,-,N/A,,Clear,130,2012-10-09 23:30:00
8:00 AM,88,33,7,29.93,,SE,17.3,,,,,130,2012-10-10 00:00:00
8:00 AM,87.8,33.8,15,29.92,-9999.0,SE,17.3,-,N/A,,Clear,130,2012-10-10 00:00:00
8:30 AM,89.6,32.0,13,29.92,-9999.0,ESE,15.0,-,N/A,,Clear,120,2012-10-10 00:30:00
9:00 AM,91,33,6,29.94,16,ESE,18.4,,,,Partly Cloudy,110,2012-10-10 01:00:00
9:00 AM,91.4,32.0,12,29.92,-9999.0,ESE,18.4,-,N/A,,Clear,110,2012-10-10 01:00:00
9:30 AM,93.2,33.8,12,29.92,-9999.0,ESE,17.3,29.9,N/A,,Clear,110,2012-10-10 01:30:00
10:00 AM,93.2,32.0,11,29.92,-9999.0,ESE,20.7,-,N/A,,Clear,110,2012-10-10 02:00:00
10:30 AM,95.0,33.8,12,29.92,-9999.0,ESE,18.4,-,N/A,,Clear,110,2012-10-10 02:30:00
11:00 AM,98,31,4,29.91,,ESE,18.4,,,,,120,2012-10-10 03:00:00
11:00 AM,96.8,32.0,10,29.89,-9999.0,ESE,18.4,-,N/A,,Clear,120,2012-10-10 03:00:00
11:30 AM,98.6,30.2,9,29.89,-9999.0,ESE,16.1,-,N/A,,Clear,110,2012-10-10 03:30:00
12:00 PM,100,30,4,29.87,19,ESE,17.3,,,,Partly Cloudy,120,2012-10-10 04:00:00
12:00 PM,100.4,30.2,9,29.86,-9999.0,ESE,17.3,-,N/A,,Clear,120,2012-10-10 04:00:00
12:30 PM,102.2,30.2,8,29.86,-9999.0,ESE,16.1,-,N/A,,Clear,120,2012-10-10 04:30:00
1:00 PM,100.4,32.0,9,29.83,-9999.0,East,13.8,-,N/A,,Clear,90,2012-10-10 05:00:00
1:30 PM,102.2,30.2,8,29.83,-9999.0,East,13.8,-,N/A,,Clear,100,2012-10-10 05:30:00
2:00 PM,97,53,14,29.82,,NE,10.4,,,,,40,2012-10-10 06:00:00
2:00 PM,96.8,53.6,23,29.80,-9999.0,NE,10.4,-,N/A,,Clear,40,2012-10-10 06:00:00
2:30 PM,91.4,60.8,36,29.80,-9999.0,North,11.5,-,N/A,,Clear,10,2012-10-10 06:30:00
3:00 PM,88,58,27,29.82,19,North,16.1,,,,Partly Cloudy,0,2012-10-10 07:00:00
3:00 PM,87.8,59.0,38,29.80,-9999.0,North,16.1,-,N/A,,Clear,360,2012-10-10 07:00:00
3:30 PM,89.6,55.4,31,29.80,6.2,North,13.8,-,N/A,,Unknown,360,2012-10-10 07:30:00
4:00 PM,87.8,53.6,31,29.80,6.2,North,13.8,-,N/A,,Unknown,360,2012-10-10 08:00:00
4:30 PM,87.8,57.2,35,29.80,6.2,North,12.7,-,N/A,,Unknown,350,2012-10-10 08:30:00
5:00 PM,86,57,27,29.83,,North,11.5,,,,,350,2012-10-10 09:00:00
5:00 PM,86.0,57.2,37,29.80,6.2,North,11.5,-,N/A,,Unknown,350,2012-10-10 09:00:00
5:30 PM,84.2,57.2,40,29.83,6.2,NNW,9.2,-,N/A,,Unknown,340,2012-10-10 09:30:00
6:00 PM,83,60,35,29.84,,North,8.1,,,,,350,2012-10-10 10:00:00
6:00 PM,82.4,59.0,45,29.83,6.2,North,8.1,-,N/A,,Unknown,350,2012-10-10 10:00:00
6:30 PM,80.6,60.8,51,29.83,6.2,NW,5.8,-,N/A,,Unknown,310,2012-10-10 10:30:00
7:00 PM,80.6,60.8,51,29.86,6.2,NNW,3.5,-,N/A,,Unknown,340,2012-10-10 11:00:00
7:30 PM,78.8,60.8,54,29.86,6.2,SW,5.8,-,N/A,,Unknown,230,2012-10-10 11:30:00
8:00 PM,79,60,41,29.90,,South,4.6,,,,,190,2012-10-10 12:00:00
8:00 PM,78.8,59.0,51,29.89,6.2,South,4.6,-,N/A,,Unknown,190,2012-10-10 12:00:00
8:30 PM,78.8,60.8,54,29.89,6.2,South,5.8,-,N/A,,Unknown,190,2012-10-10 12:30:00
9:00 PM,78,59,41,29.92,,South,8.1,,,,,190,2012-10-10 13:00:00
9:00 PM,78.8,59.0,51,29.92,6.2,South,8.1,-,N/A,,Unknown,190,2012-10-10 13:00:00
9:30 PM,77.0,57.2,50,29.92,6.2,South,6.9,-,N/A,,Unknown,180,2012-10-10 13:30:00
10:00 PM,78.8,57.2,47,29.92,6.2,South,8.1,-,N/A,,Unknown,180,2012-10-10 14:00:00
10:30 PM,77.0,57.2,50,29.92,6.2,South,5.8,-,N/A,,Unknown,190,2012-10-10 14:30:00
11:00 PM,77,56,37,29.93,,South,6.9,,,,,190,2012-10-10 15:00:00
11:00 PM,77.0,55.4,47,29.92,6.2,South,6.9,-,N/A,,Unknown,190,2012-10-10 15:00:00
11:30 PM,77.0,57.2,50,29.92,6.2,South,5.8,-,N/A,,Unknown,190,2012-10-10 15:30:00